Location: Bothwell
(42.3833°S, 147.0000°E)
Time: 01:12:44
(UTC+11:00)

VELOX 1 - Pass Details

Date: 04 October 2022
Orbit: 622 x 637 km, 98.4° (Epoch: 05 December)

Event Time Altitude Azimuth Distance (km) Brightness Sun altitude
Rises 06:03:32 0° 152° (SSE) 2,947 ? -7.7°
Reaches altitude 10° 06:06:12 10° 137° (SE) 2,028 ? -7.2°
Maximum altitude 06:09:37 22° 86° (E) 1,402 ? -6.6°
Drops below altitude 10° 06:12:58 10° 35° (NE) 2,002 ? -6.0°
Sets 06:15:34 0° 19° (NNE) 2,898 ? -5.5°
